Meteo Giornale » Osservazioni meteo Stati Uniti (USA) » Panama City
ore: 02:53 - Osservazioni Meteo Panama City
Lat. 30° 21' N Lon. 85° 48' W Alt. 21 metri s.l.m.
24 °C
Sereno
Temp. 24 Ore
23 °C
33 °C
Nord
0 Km/h
Dew point 24 °C
Umidità 100 %
Visibilità 10 Km
Il sole sorge alle ore 06:20
Il sole tramonta alle ore 19:06
| Data e Ora | Cielo e Fenomeni | T °C | DP °C | Um. % | Pres. hPa | Vis. km | Vento km/h | |
|---|---|---|---|---|---|---|---|---|
| Oggi h: 02:53 | Sereno | 24 | 24 | 100 | 1016 | 10 | N 0 | |
| Oggi h: 01:53 | Sereno | 25 | 24 | 94 | 1016 | 10 | N 0 | |
| Oggi h: 00:53 | Sereno | 25 | 24 | 94 | 1017 | 10 | N 0 | |
| Ieri h: 23:53 | Sereno | 25 | 24 | 94 | 1017 | 10 | N 0 | |
| Ieri h: 22:53 | Sereno | 25 | 24 | 94 | 1017 | 10 | N 0 | |
| Ieri h: 21:53 | Sereno | 26 | 25 | 94 | 1017 | 10 | N 0 | |
| Ieri h: 20:53 | Sereno | 26 | 26 | 100 | 1017 | 10 | N 0 | |
| Ieri h: 19:53 | Sereno | 27 | 26 | 94 | 1016 | 10 | N 0 | |
| Ieri h: 18:53 | Sereno | 28 | 26 | 88 | 1016 | 10 | S 7.4 | |
| Ieri h: 17:53 | Nuvoloso | 29 | 26 | 83 | 1016 | 10 | S 11.1 | |
| Ieri h: 16:53 | Molto Nuvoloso | 29 | 25 | 79 | 1016 | 10 | SO 9.3 | |
| Ieri h: 15:53 | Molto Nuvoloso | 29 | 24 | 74 | 1016 | 10 | N 0 | |
| Ieri h: 14:53 | Molto Nuvoloso | 33 | 22 | 52 | 1016 | 10 | N 7.4 | |
| Ieri h: 14:20 | Nuvoloso | 32 | 23 | 59 | 1017 | 10 | E/SE 11.1 | |
| Ieri h: 13:53 | Nuvoloso | 32 | 23 | 59 | 1017 | 10 | N 7.4 | |
| Ieri h: 12:53 | Molto Nuvoloso | 32 | 23 | 59 | 1017 | 10 | N 7.4 | |
| Ieri h: 11:53 | Nuvoloso | 32 | 24 | 62 | 1018 | 10 | N/NE 13 | |
| Ieri h: 10:53 | Nuvoloso | 31 | 24 | 66 | 1018 | 10 | N/NE 11.1 | |
| Ieri h: 09:53 | Poco Nuvoloso | 29 | 24 | 74 | 1018 | 10 | NE 13 | |
| Ieri h: 08:53 | Sereno | 28 | 24 | 78 | 1018 | 10 | N/NE 11.1 | |
| Ieri h: 07:53 | Sereno | 26 | 23 | 83 | 1018 | 10 | NE 13 | |
| Ieri h: 06:53 | Sereno | 24 | 23 | 94 | 1017 | 10 | NE 7.4 | |
| Ieri h: 05:53 | Sereno | 23 | 23 | 100 | 1017 | 10 | E/NE 7.4 | |
| Ieri h: 04:53 | Sereno | 23 | 23 | 100 | 1016 | 10 | N/NE 7.4 | |
| Ieri h: 03:53 | Sereno | 24 | 23 | 94 | 1016 | 10 | N 0 | |



